Regional Weather Roundup
Issued by NWS

Home | Current Version | Previous Version | Graphics & Text | Print | Product List | Glossary On
Versions: 1 2 3 4 5 6 7 8 9 10 11 12 13 14 15 16 17 18 19 20 21 22 23 24 25 26 27 28 29 30 31 32 33 34 35 36 37 38 39 40 41 42 43 44 45 46 47 48 49 50
000
ASUS43 KLMK 240902
RWRKY
KENTUCKY REGIONAL WEATHER ROUNDUP
NATIONAL WEATHER SERVICE LOUISVILLE KY
500 AM EDT FRI MAR 24 2017

NOTE "FAIR" INDICATES FEW OR NO CLOUDS BELOW 12,000 FEET
WITH NO SIGNIFICANT WEATHER AND/OR OBSTRUCTIONS TO VISIBILITY.

KYZ001>023-026-027-061>063-070>075-241000-
WESTERN AND SOUTH CENTRAL KENTUCKY

CITY           SKY/WX    TMP DP  RH WIND       PRES   REMARKS
PADUCAH        CLEAR     65  52  62 S10G20    30.05F
HENDERSON      CLEAR     55  46  71 S15       30.06F
OWENSBORO      CLEAR     57  47  69 S15       30.11F
HOPKINSVILLE   CLEAR     61  50  68 S12       30.14S
BOWLING GREEN  CLEAR     59  43  55 S16G25    30.19S
GLASGOW        NOT AVBL
$$

KYZ024-025-028>034-038-045-046-053-241000-
NORTH CENTRAL KENTUCKY

CITY           SKY/WX    TMP DP  RH WIND       PRES   REMARKS
LOUISVILLE/SDF CLEAR     58  38  47 S17G23    30.13F
LOUISVILLE/LOU CLEAR     58  40  51 S10G18    30.14F
FORT KNOX      CLEAR     56  41  57 S16       30.13F
$$

KYZ035>037-039>044-047>052-055>060-089>105-241000-
NORTHEAST KENTUCKY

CITY           SKY/WX    TMP DP  RH WIND       PRES   REMARKS
LEXINGTON      CLEAR     54  38  54 S14       30.19S
COVINGTON      CLEAR     53  40  61 S13       30.12F
FRANKFORT      CLEAR     56  39  53 S9        30.16F
$$

KYZ054-064>069-076>088-106>120-241000-
SOUTHEAST KENTUCKY

CITY           SKY/WX    TMP DP  RH WIND       PRES   REMARKS
JACKSON        CLEAR     53  34  48 VRB5      30.25S
LONDON         CLEAR     55  38  52 S6        30.26S
SOMERSET       NOT AVBL
MIDDLESBORO    CLEAR     54  37  52 S5        30.32S
MONTICELLO     SUNNY     56  40  55 SE8G16    30.25F
$$





USA.gov is the U.S. government's official web portal to all federal, state and local government web resources and services.